EW8167 Weather Reports


time (UTC)temp
C
wind
direction
speed
KPH
gust
KPH
rain 1hr
cm
rain 24hr
cm
rain mn
cm
humidity
%
barometer
mb
20260506201549 26 269 4.8 16.1 0.00 0.00 0.00 45 1019.4
20260506200148 25 320 3.2 16.1 0.00 0.00 0.00 46 1019.5
20260506194555 25 360 6.4 16.1 0.00 0.00 0.00 46 1019.7
20260506193059 25 263 3.2 9.7 0.00 0.00 0.00 47 1019.9
20260506191548 24 67 4.8 16.1 0.00 0.00 0.00 49 1020.2
20260506190143 23 360 9.7 14.5 0.00 0.00 0.00 51 1020.3
20260506184549 22 45 4.8 16.1 0.00 0.00 0.00 52 1020.3
20260506183046 21 273 4.8 16.1 0.00 0.00 0.00 53 1020.4
20260506181550 22 254 1.6 12.9 0.00 0.00 0.00 54 1020.5
20260506180140 21 12 3.2 14.5 0.00 0.00 0.00 56 1020.5
20260506174545 20 51 3.2 14.5 0.00 0.00 0.00 59 1020.5
20260506173045 20 262 3.2 9.7 0.00 0.00 0.00 59 1020.6
20260506171539 19 355 4.8 14.5 0.00 0.00 0.00 62 1020.7
20260506170135 18 340 4.8 9.7 0.00 0.00 0.00 67 1020.7
20260506164601 17 291 3.2 11.3 0.00 0.00 0.00 68 1020.8
20260506163051 17 12 1.6 9.7 0.00 0.00 0.00 71 1020.9
20260506161536 16 355 4.8 12.9 0.00 0.00 0.00 77 1021.0
20260506160135 15 340 3.2 9.7 0.00 0.00 0.00 83 1021.1
20260506154553 13 343 4.8 8.0 0.00 0.00 0.00 85 1021.1
20260506153045 12 26 0.0 6.4 0.00 0.00 0.00 87 1021.2
20260506151545 12 30 0.0 1.6 0.00 0.00 0.00 87 1021.3
20260506150145 11 198 0.0 3.2 0.00 0.00 0.00 87 1021.3
20260506144545 10 336 0.0 3.2 0.00 0.00 0.00 87 1021.5
20260506143044 10 302 0.0 3.2 0.00 0.00 0.00 86 1021.5
20260506141544 9 315 0.0 0.0 0.00 0.00 0.00 86 1021.3
20260506140141 9 315 0.0 1.6 0.00 0.00 0.00 86 1021.0
20260506134540 9 344 0.0 0.0 0.00 0.00 0.00 86 1020.8
20260506133050 9 344 0.0 3.2 0.00 0.00 0.00 86 1020.7
20260506131538 9 36 0.0 0.0 0.00 0.00 0.00 85 1020.5
20260506130136 9 153 0.0 0.0 0.00 0.00 0.00 85 1020.5
20260506124537 9 153 0.0 0.0 0.00 0.00 0.00 85 1020.4
20260506123036 9 153 0.0 0.0 0.00 0.00 0.00 85 1020.3
20260506121533 9 153 0.0 0.0 0.00 0.00 0.00 84 1020.1
20260506120133 10 153 0.0 0.0 0.00 0.00 0.00 84 1020.1
20260506114552 10 153 0.0 0.0 0.00 0.00 0.00 84 1020.0
20260506113050 10 153 0.0 0.0 0.00 0.00 0.00 84 1019.9
20260506111549 10 153 0.0 0.0 0.00 0.00 0.00 84 1019.7
20260506110147 10 153 0.0 0.0 0.00 0.00 0.00 84 1019.8
20260506104558 10 153 0.0 0.0 0.00 0.00 0.00 84 1019.8
20260506103048 10 153 0.0 0.0 0.00 0.00 0.00 84 1019.7
20260506101545 11 153 0.0 0.0 0.00 0.00 0.00 83 1019.7
20260506100142 11 153 0.0 4.8 0.00 0.00 0.00 83 1019.6
20260506094545 11 159 0.0 0.0 0.00 0.00 0.00 83 1019.7
20260506093042 11 159 0.0 0.0 0.00 0.00 0.00 82 1019.7
20260506091540 12 159 0.0 0.0 0.00 0.00 0.00 82 1019.8
20260506090138 12 159 0.0 0.0 0.00 0.00 0.00 82 1019.9
20260506084610 12 159 0.0 0.0 0.00 0.00 0.00 82 1019.7
20260506083038 12 159 0.0 0.0 0.00 0.00 0.00 82 1019.6
20260506081547 12 159 0.0 0.0 0.00 0.00 0.00 82 1019.7
20260506080133 12 155 0.0 0.0 0.00 0.00 0.00 82 1019.7
20260506073053 12 155 0.0 3.2 0.00 0.00 0.00 82 1019.4
20260506071551 12 131 0.0 4.8 0.00 0.00 0.00 81 1019.3
20260506070151 12 159 0.0 0.0 0.00 0.00 0.00 81 1019.1
20260506061547 13 130 0.0 0.0 0.00 0.00 0.00 78 1018.8
20260506060148 13 130 0.0 0.0 0.00 0.00 0.00 78 1018.7
20260506050141 14 131 0.0 0.0 0.00 0.00 0.00 77 1018.3
20260506044542 14 131 0.0 4.8 0.00 0.00 0.00 76 1018.3
20260506043044 14 130 1.6 4.8 0.00 0.00 0.00 76 1018.1
20260506041538 14 144 1.6 9.7 0.00 0.00 0.00 76 1017.9
20260506040140 14 145 1.6 9.7 0.00 0.00 0.00 77 1017.8
20260506034536 14 138 3.2 6.4 0.00 0.00 0.00 77 1017.6
20260506033034 15 118 3.2 6.4 0.00 0.00 0.00 76 1017.2
20260506031540 15 160 1.6 4.8 0.00 0.00 0.00 76 1017.1
20260506030132 15 167 3.2 6.4 0.00 0.00 0.00 76 1016.9
20260506024552 15 152 3.2 9.7 0.00 0.00 0.00 76 1016.7
20260506023104 15 217 3.2 8.0 0.00 0.00 0.00 75 1016.7
20260506021610 15 232 4.8 9.7 0.00 0.00 0.00 75 1016.6
20260506020150 15 186 1.6 8.0 0.00 0.00 0.00 74 1016.6
20260506014547 16 219 1.6 8.0 0.00 0.00 0.00 74 1016.6
20260506013057 16 169 1.6 6.4 0.00 0.00 0.00 74 1016.6
20260506011601 16 196 4.8 12.9 0.00 0.00 0.00 73 1016.5
20260506010145 16 303 1.6 4.8 0.00 0.00 0.00 72 1016.5
20260506004543 15 178 0.0 8.0 0.00 0.00 0.00 73 1016.5
20260506003043 15 201 3.2 12.9 0.00 0.00 0.00 74 1016.5
20260506001546 16 240 4.8 12.9 0.00 0.00 0.00 73 1016.4
20260506000141 16 244 8.0 14.5 0.00 0.00 0.00 68 1016.3
20260505234539 17 103 0.0 6.4 0.00 0.00 0.00 64 1016.3
20260505233039 17 355 1.6 8.0 0.00 0.00 0.00 64 1016.3
20260505231549 17 331 1.6 9.7 0.00 0.00 0.00 64 1016.3
20260505230137 17 5 4.8 12.9 0.00 0.00 0.00 64 1016.4
20260505224536 17 360 4.8 11.3 0.00 0.00 0.00 64 1016.4
20260505223035 17 355 3.2 12.9 0.00 0.00 0.00 64 1016.5
20260505221536 17 340 6.4 16.1 0.00 0.00 0.00 63 1016.7
20260505220134 17 5 9.7 16.1 0.00 0.00 0.00 62 1016.7
20260505214559 18 341 0.0 14.5 0.00 0.00 0.00 62 1016.6
20260505213052 17 5 4.8 9.7 0.00 0.00 0.00 63 1016.7
20260505211550 17 51 4.8 16.1 0.00 0.00 0.00 64 1016.9
20260505210150 17 342 8.0 16.1 0.00 0.00 0.00 64 1016.9
20260505204551 17 307 1.6 14.5 0.00 0.00 0.00 65 1016.9
20260505203106 16 355 6.4 16.1 0.00 0.00 0.00 65 1017.0